Regional Weather Roundup
Issued by NWS New Orleans/Baton Rouge, LA

Current Version | Previous Version | Text Only | Print | Product List | Glossary On
Versions: 1 2 3 4 5 6 7 8 9 10 11 12 13 14 15 16 17 18 19 20 21 22 23 24 25 26 27
000
ASUS44 KLIX 210813
RWRLIX
NEW ORLEANS REGIONAL WEATHER ROUNDUP
NATIONAL WEATHER SERVICE NEW ORLEANS LA
300 AM CDT THU SEP 21 2017

NOTE: "FAIR" INDICATES FEW OR NO CLOUDS BELOW 12,000 FEET WITH NO
      SIGNIFICANT WEATHER AND/OR OBSTRUCTIONS TO VISIBILITY.
      SKY/WX - SKY CONDITION AND SIGNIFICANT WEATHER.
      TMP - AIR TEMPERATURE.     DP    - DEWPOINT TEMPERATURE.
      RH  - RELATIVE HUMIDITY.   PRES  - PRESSURE.
      HI  - HEAT INDEX.          WCI   - WIND CHILL INDEX.

*  THESE STATIONS ARE NOT NWS OR FAA STATIONS AND ARE NOT UNDER
   NWS QUALITY CONTROL.

LAZ038-040-048-061>063-065>067-069-210900-
SOUTHEAST LOUISIANA

CITY           SKY/WX    TMP DP  RH WIND       PRES   REMARKS
N.O. INTL ARPT PTCLDY    75  74  96 CALM      29.99S
N.O. LAKEFRONT PTCLDY    80  75  84 CALM      30.00R
N.O. DOWNTOWN*   N/A     79  74  84 CALM      30.00S
RESERVE*         N/A     74  71  93 CALM      30.00S
SLIDELL        CLEAR     74  72  93 CALM      29.98F
BATON ROUGE    CLEAR     70  69  97 CALM      30.00R
BOOTHVILLE     CLEAR     80  72  76 CALM      29.98F
BELLE CHASSE   NOT AVBL
BOGALUSA*      CLOUDY    74  71  90 CALM      30.01F VSB 3/4
GALLIANO*      SUNNY     73  70  91 CALM      29.98S FOG
NEW ROADS*       N/A     72  71  97 CALM      30.00R
GONZALES*        N/A     69  69  99 CALM      29.99R
HAMMOND*       CLOUDY    72  68  88 CALM      30.01R
HOUMA*         NOT AVBL
PORT FOURCHON* SUNNY     82  72  69 S3        29.99S

$$

MSZ070-080>082-210900-
SOUTHERN MISSISSIPPI

CITY           SKY/WX    TMP DP  RH WIND       PRES   REMARKS
MCCOMB         CLEAR     71  69  93 CALM      30.01F
GULFPORT       CLEAR     74  71  91 CALM      29.98F
BILOXI         CLEAR     73  69  88 NE5       29.99S
PASCAGOULA     CLEAR     69  67  93 CALM      29.99F

$$

COASTAL OBSERVATIONS
LAKE AND NEARSHORE STATIONS

STATION/POSITION TIME  TEMP    WIND        PRES    WAVE
                       AIR SEA DIR/SP/G            HT/PER
                 (UTC) (F)     (DEG/KT/KT) (MB)    (FT/S)
PASCAGOULA       0742   73      30/  5/  6 1015.1
WAVELAND YACHT   0742   79 84   40/  5/  6 1015.7
GRAND ISLE       0742   81 87  220/  3/  4 1015.3
SOUTHWEST PASS   0742   82     190/  2/  3   N/A
NEW CANAL        0742   78 81     CALM     1015.5
SHELL BEACH      0742   81 86  280/  3/  4 1015.7

OFFSHORE STATIONS

STATION/POSITION TIME  TEMP    WIND        PRES    WAVE
                       AIR SEA DIR/SP/G            HT/PER
                 (UTC) (F)     (DEG/KT/KT) (MB)    (FT/S)
64 S DAUPHIN ISL 0750   81 83  260/  2/  4 1015.4    1

$$





USA.gov is the U.S. government's official web portal to all federal, state and local government web resources and services.